Find Kosmos-858

NORAD ID: 9443 Int'l Des: 1976-098 Owner: GUKOSR Country: SU operational
LEOCIRCULAR

实时位置

正在加载3D地球...

关于 Kosmos-858

正在加载描述...

即将过境

Passes for default location (London). Set your location on the main map for personalized predictions.

高度历史

Loading altitude history...

两行轨道根数

1 9443U 76098A 26106.70215970 .00000056 00000-0 28663-4 0 9996
2 9443 74.0476 270.7901 0013143 42.1487 318.0673 14.35112949589935
Epoch: Apr 16, 2026 • Age: 23 hours

当前状态

高度 801.0 km
速度 7.45 km/s
星下点 -45.02°S, 24.96°E
类型 other

Most Searched